Location: Damada
(14.7329°N, 3.1761°W)
Time: 03:05:35
(UTC+00:00)

Cosmos 1862 - Pass Details

Date: 18 February 2020
Orbit: 539 x 556 km, 82.5° (Epoch: 09 April)

Event Time Altitude Azimuth Distance (km) Brightness Sun altitude
Rises 18:37:52 0° 183° (S) 2,716 7.1 -5.6°
Reaches altitude 10° 18:40:02 10° 183° (S) 1,821 6.2 -6.1°
Maximum altitude 18:44:02 88° 96° (E) 553 3.3 -7.1°
Drops below altitude 10° 18:48:02 10° 5° (N) 1,813 5.8 -8.0°
Sets 18:50:11 0° 5° (N) 2,704 6.7 -8.5°
